Location: Milford
(51.1667°N, 0.6333°W)
Time: 07:24:23
(UTC+00:00)

Daily predictions for brighter satellites

Satellite Brightness Start Highest point End
(mag) Time Altitude Azimuth Time Altitude Azimuth Time Altitude Azimuth
SL-8 Rocket 4.4 20:03:13 10° SSW 20:09:22 70° WNW 20:15:38 10° N
Cosmos 2082 Rocket 3.4 20:05:58 10° SSE 20:10:03 21° E 20:14:08 10° NE
Cosmos 2278 4.4 20:05:13 10° NNW 20:10:42 44° NE 20:16:08 10° ESE
Cosmos 1500 Rocket 3.6 20:11:10 10° S 20:15:28 85° W 20:19:51 10° N
Spot 2 Rocket 4.2 20:12:19 10° SE 20:17:05 41° ENE 20:21:50 10° N
Cosmos 2322 Rocket 4.1 20:14:03 10° NNW 20:18:06 19° NNE 20:22:10 10° E
Meteor 1-4 Rocket 3.6 20:16:08 10° N 20:19:13 28° ENE 20:22:15 10° SE
Ariane Rocket 4.4 20:14:32 10° SSW 20:19:18 40° W 20:24:05 10° NNW
USA 186 4.1 20:19:17 10° SW 20:20:34 14° W 20:21:51 10° WNW
Resurs 1-3 3.8 20:16:16 10° S 20:20:38 75° WSW 20:25:03 10° NNW
CZ-2C R/B 2.7 20:18:14 10° NNE 20:23:27 82° WNW 20:28:38 10° SSW
Terra 3.5 20:21:56 10° ESE 20:25:16 19° ENE 20:28:37 10° NNE
Cosmos 407 Rocket 4.0 20:20:45 10° S 20:25:39 38° ESE 20:30:32 10° NE
USA 234 3.4 20:19:28 10° ESE 20:26:01 84° NNE 20:32:37 10° WNW
Cosmos 1666 Rocket 4.3 20:23:03 10° SSE 20:26:56 34° E 20:30:52 10° NNE
Meteor 1-27 Rocket 3.9 20:24:03 10° N 20:29:57 70° ENE 20:35:53 10° SSE
Meteor 1-10 Rocket 4.4 20:24:51 10° NNW 20:30:31 79° W 20:36:16 10° S
MetOp-B 4.2 20:26:41 10° SSE 20:31:59 68° ENE 20:37:20 10° N
Cosmos 2360 Rocket 4.4 20:28:30 10° N 20:32:01 16° NNE 20:35:31 10° ENE
BREEZE-M DEB (TANK) 4.2 20:31:27 10° W 20:35:46 19° SW 20:38:13 10° S
ERBS 2.6 20:33:17 10° WSW 20:36:36 68° NNW 20:39:55 10° ENE
Cosmos 1805 Rocket 3.6 20:34:09 10° S 20:38:35 84° E 20:43:05 10° NNE
SPOT 5 3.8 20:35:54 11° ESE 20:39:24 28° ENE 20:43:07 10° N
Cosmos 1980 Rocket 2.4 20:36:21 10° NNW 20:42:01 62° NE 20:47:05 13° SE
SPOT 1/Viking Rocket 3.8 20:39:53 10° SE 20:44:53 56° ENE 20:50:01 10° N
SL-4 R/B 2.8 20:44:05 10° SSW 20:47:20 25° SE 20:50:26 10° E
Genesis I 3.4 20:43:45 10° NW 20:47:37 62° NE 20:50:44 15° SE
BREEZE-M DEB (TANK) 2.4 20:45:29 10° WSW 20:48:04 57° SSE 20:54:15 10° E
ATLAS 5 CENTAUR R/B 3.4 20:45:10 10° NW 20:50:27 40° WSW 20:56:30 10° S
Cosmos 405 Rocket 4.4 20:49:21 14° ESE 20:50:45 17° E 20:53:10 10° NE
Cosmos 1140 Rocket 3.7 20:46:14 10° S 20:51:15 48° ESE 20:56:18 10° NNE
Cosmos 389 Rocket 3.9 20:50:26 10° NNW 20:53:38 36° W 20:56:49 10° SSW
Cosmos 1812 3.7 20:53:02 10° NNW 20:56:43 45° W 21:00:23 10° SSW
Cosmos 1697 Rocket 3.0 20:52:11 10° NW 20:57:45 65° WSW 21:03:04 11° SSE
USA 32 4.5 20:53:02 11° SSE 20:57:46 44° E 21:02:44 10° NNE
Cosmos 1633 Rocket 3.1 20:55:47 10° S 21:00:09 60° E 21:04:31 10° NNE
Cosmos 1833 Rocket 2.6 20:54:39 10° SSW 21:00:15 72° ESE 21:05:52 10° NNE
Okean 1-7 4.3 21:02:26 10° N 21:06:08 26° ENE 21:08:30 17° ESE
Cosmos 1867 4.1 21:01:35 10° S 21:06:32 37° ESE 21:11:32 10° NE
CENTAUR R/B 3.7 21:04:46 16° SE 21:07:06 20° ESE 21:11:43 10° ENE
Cosmos 1707 Rocket 4.1 21:04:00 10° NNW 21:08:17 57° W 21:12:31 10° S
Resurs 01 Rocket 3.0 21:06:41 10° SSW 21:10:47 37° W 21:14:55 10° NNW
FALCON 9 DEB 4.0 21:10:04 10° SSW 21:13:06 28° SE 21:15:21 15° E
Landsat 7 4.0 21:08:59 12° S 21:13:25 74° WSW 21:18:12 10° NNW
Cosmos 1441 Rocket 4.3 21:11:10 10° SSW 21:14:49 45° WNW 21:18:28 10° N
deb Kosmos-1763 4.1 21:14:15 12° S 21:17:30 52° ESE 21:21:05 10° NNE
Cosmos 192 4.3 21:14:35 10° NNW 21:19:32 89° E 21:22:57 20° SSE
ATLAS 5 CENTAUR R/B 2.9 21:17:41 10° NNW 21:19:47 29° NE 21:23:25 11° E
Cosmos 676 Rocket 4.2 21:14:57 10° S 21:20:07 54° ESE 21:25:20 10° NNE
IGS 5A 3.9 21:17:35 13° S 21:21:13 58° W 21:25:19 10° NNW
Meteor 1-25 Rocket 4.3 21:17:53 14° S 21:22:37 56° E 21:28:07 10° NNE
Cosmos 1470 Rocket 3.6 21:19:30 16° S 21:22:51 58° E 21:27:12 10° NNE
Cosmos 1934 Rocket 4.1 21:18:33 10° S 21:24:56 87° W 21:31:21 10° N
Aureole 1 Rocket 4.4 21:19:10 10° S 21:26:01 72° ESE 21:34:19 10° NNE
GP-B 3.2 21:22:16 10° N 21:26:44 79° W 21:30:41 13° S
SWAS 4.5 21:23:26 10° SSW 21:27:46 87° WNW 21:32:08 10° NNE
USA 267 3.2 21:25:39 10° ENE 21:32:14 83° SSE 21:38:48 10° WSW
NOSS 3-2 (A) 3.7 21:27:07 10° S 21:32:31 44° ESE 21:38:38 10° NE
Cosmos 921 Rocket 2.9 21:28:17 10° NNW 21:32:33 86° ENE 21:34:51 26° SSE
Cosmos 1862 Rocket 4.0 21:30:25 10° NNW 21:34:51 62° W 21:38:11 17° S
NOSS 3-2 (C) 4.1 21:35:51 21° SSE 21:38:37 32° ESE 21:44:12 10° NE
COSMOS 2406 4.2 21:33:14 10° SW 21:38:49 50° NW 21:44:24 10° NNE
Cosmos 841 Rocket 4.4 21:34:08 10° NNW 21:38:59 38° NE 21:42:00 20° ESE
ERS-1 Rocket 3.0 21:36:08 20° S 21:39:39 78° WSW 21:44:42 10° NNW
OPS 6432 4.4 21:36:15 10° SSW 21:40:15 65° SE 21:43:24 10° NE
SAR-Lupe-2 3.5 21:36:41 10° NNE 21:40:16 65° ESE 21:41:56 29° S
Cosmos 540 Rocket 4.4 21:35:37 10° NNW 21:40:26 37° NE 21:43:22 20° ESE
SL-16 R/B 2.5 21:35:16 10° NNW 21:40:53 56° NE 21:44:17 23° SE
Lacrosse 5 1.9 21:37:10 10° WNW 21:42:16 78° NNE 21:45:32 23° ESE
Cosmos 468 Rocket 4.1 21:37:26 10° NNW 21:42:48 74° ENE 21:45:45 27° SE
NOSS 2 (A) 4.5 21:48:08 10° NW 21:50:43 49° SW 21:50:43 49° SW
Cosmos 2219 Rocket 4.2 21:47:11 10° NNW 21:51:21 20° NE 21:55:32 10° E
Cosmos 1954 Rocket 4.0 21:48:05 10° SSW 21:53:26 88° WNW 21:58:48 10° NNE
Cosmos 2082 Rocket 2.3 21:47:48 10° SSW 21:53:30 80° WNW 21:59:13 10° NNE
Cosmos 1184 Rocket 3.8 21:53:56 15° SW 21:56:22 45° WNW 21:59:35 10° N
CARTOSAT-1 4.3 21:57:12 21° SSW 21:59:46 48° W 22:03:59 10° NNW
Terra 1.9 22:00:02 28° S 22:02:31 74° WSW 22:07:19 10° NNW
Cosmos 2322 Rocket 2.4 21:57:35 10° NNW 22:03:17 66° ENE 22:06:13 29° SE
Cosmos 1933 Rocket 3.6 22:01:23 23° SSW 22:04:06 79° WNW 22:08:33 10° N
Okean 1 3.7 22:01:21 10° NNW 22:05:20 59° W 22:07:07 30° SSW
Cosmos 1238 Rocket 3.1 22:06:53 27° SW 22:08:08 44° WNW 22:11:01 10° N
Cosmos 1602 3.9 22:06:47 29° SSW 22:08:42 73° WNW 22:12:39 10° N
Cosmos 2100 Rocket 4.1 22:05:35 29° SSE 22:08:43 58° E 22:14:44 10° NNE
USA 234 3.9 22:06:06 25° S 22:09:27 41° SW 22:15:35 10° WNW
Cosmos 1437 Rocket 2.7 22:05:53 10° NNW 22:09:43 75° W 22:10:50 43° S
Cosmos 1242 Rocket 4.4 22:08:51 10° NNE 22:11:31 19° ENE 22:12:07 18° E
Cosmos 1605 Rocket 4.3 22:05:45 10° SSW 22:11:49 63° WNW 22:17:53 10° N
ERBS 4.2 22:10:18 10° WNW 22:13:18 29° N 22:16:15 10° ENE
Cosmos 1869 Rocket 3.7 22:13:01 41° SSE 22:14:15 57° E 22:18:38 10° NNE
SPOT 5 3.7 22:15:08 22° SSW 22:17:23 38° W 22:21:29 10° NNW
Cosmos 2360 Rocket 2.7 22:11:53 10° NNW 22:17:26 50° NE 22:20:19 27° ESE
COSMOS 2428 4.4 22:13:19 10° NNW 22:18:02 25° NE 22:22:37 10° E
MTI 4.0 22:15:45 10° NNE 22:18:29 50° ENE 22:18:29 50° ENE
JB-3 4.2 22:15:34 10° NNE 22:19:34 78° ESE 22:20:44 45° S
ATLAS 3B R/B 3.5 22:21:12 26° ESE 22:21:45 26° ESE 22:27:03 10° ENE
Cosmos 1703 Rocket 4.0 22:18:15 10° NNW 22:22:32 55° W 22:24:15 32° SSW
Geosat 4.0 22:20:48 37° SE 22:22:53 82° ENE 22:27:57 10° NNW
Iridium 4 Rocket 3.0 22:21:45 45° SSE 22:22:56 67° E 22:27:08 10° N
Cosmos 2173 Rocket 3.9 22:21:11 31° S 22:24:15 70° E 22:30:21 10° NNE
Cosmos 1500 3.0 22:25:10 60° SE 22:25:36 68° E 22:29:20 10° NNE
Cosmos 1980 Rocket 3.7 22:20:56 10° NW 22:25:38 27° WSW 22:28:51 16° SSW
Cosmos 405 Rocket 3.6 22:24:29 23° SW 22:26:23 44° WNW 22:30:00 10° N
SL-4 R/B 1.5 22:22:48 10° WSW 22:26:37 75° SSE 22:27:13 57° E
USA 238 DEB 3.6 22:21:43 10° SW 22:28:23 85° SE 22:35:24 10° NE
USA 238 3.6 22:21:50 10° SW 22:28:30 85° SE 22:35:30 10° NE
Cosmos 1763 Rocket 3.9 22:23:45 10° NNW 22:28:59 58° WSW 22:31:09 34° S
ALOS 2 3.8 22:27:44 25° E 22:29:02 30° ENE 22:32:54 10° N
Cosmos 1725 Rocket 4.5 22:27:19 32° SE 22:29:40 46° E 22:35:39 10° NNE
Meteor 1-14 Rocket 4.5 22:29:24 22° SSW 22:33:19 73° WNW 22:39:18 10° N
Cosmos 1536 3.7 22:34:40 33° E 22:34:40 33° E 22:38:15 10° NNE
Cosmos 1666 3.3 22:37:32 41° E 22:37:32 41° E 22:40:56 10° NNE
Cosmos 2333 Rocket 3.4 22:32:29 10° NNW 22:37:47 36° NE 22:41:19 19° ESE
Cosmos 1271 Rocket 4.4 22:37:18 10° NNE 22:40:15 21° ENE 22:40:47 20° ENE
Cosmos 1356 4.5 22:41:30 34° ENE 22:41:30 34° ENE 22:44:05 10° NNE
Meteor 1-13 Rocket 4.1 22:35:48 10° NNW 22:41:23 85° ENE 22:43:23 41° SSE
Cosmos 2237 Rocket 4.4 22:37:28 10° NNW 22:41:26 19° NNE 22:45:23 10° ENE
Cosmos 2016 Rocket 4.1 22:39:51 36° SSE 22:42:29 66° E 22:48:49 10° NNE
Meteor 1-5 Rocket 4.3 22:40:38 35° S 22:43:17 79° E 22:49:15 10° NNE
Lacrosse 4 Rocket 3.7 22:45:23 13° E 22:45:23 13° E 22:46:14 10° ENE
Okean 1-7 4.1 22:39:48 10° NNW 22:43:49 37° W 22:45:21 28° SW
Cosmos 2061 Rocket 4.0 22:41:23 37° SSE 22:43:53 67° E 22:50:02 10° NNE
MOS 1-B Rocket 3.8 22:38:53 10° NNE 22:44:38 69° ESE 22:46:43 39° S
Cosmos 2221 Rocket 3.5 22:41:02 10° N 22:45:31 83° E 22:46:29 55° SSE
Cosmos 1459 Rocket 4.0 22:42:36 31° S 22:45:53 86° W 22:52:19 10° N
Okean 3 3.5 22:45:23 10° NNW 22:49:40 75° W 22:50:31 55° SSW
FALCON 9 DEB 3.9 22:46:22 10° WSW 22:48:49 43° WSW 22:48:49 43° WSW
Cosmos 1867 4.3 22:44:41 10° WSW 22:50:01 53° NW 22:55:23 10° NE
Cosmos 1733 Rocket 3.4 22:50:59 44° ESE 22:51:20 45° E 22:55:33 10° NNE
Cosmos 1066 Rocket 4.4 22:46:07 10° N 22:51:52 64° ENE 22:53:46 41° SE
SL-27 R/B 2.4 22:53:08 74° NNW 22:53:08 74° NNW 22:56:17 10° NNE
Meteor 1-23 Rocket 4.4 22:47:51 10° N 22:53:41 64° ENE 22:55:42 40° SE
Cosmos 1864 Rocket 4.5 22:53:22 40° SSE 22:55:41 69° E 23:01:55 10° NNE
Thor Agena Rocket 3.6 22:50:49 10° NNE 22:55:51 61° ESE 22:57:00 48° SSE
CENTAUR R/B 2.5 22:51:50 18° SW 22:56:32 82° SE 23:03:50 10° NE
Cosmos 1850 Rocket 4.3 22:54:34 23° SW 22:57:51 66° WNW 23:03:08 10° NNE
Meteor 2-4 Rocket 4.3 22:53:12 10° NNW 22:58:39 48° W 23:00:58 30° SSW
Cosmos 967 Rocket 4.4 22:52:20 10° NW 22:58:44 76° SW 23:01:03 41° SSE
Cosmos 44 3.4 22:55:44 10° NW 23:00:33 62° SW 23:01:33 51° S
Cosmos 1802 Rocket 4.0 22:58:41 33° SSW 23:01:48 82° W 23:08:13 10° N
Spot 4 3.9 23:06:33 51° SSW 23:07:40 70° WSW 23:12:30 10° NNW
Cosmos 1378 3.5 23:08:52 10° N 23:12:29 52° ENE 23:12:29 52° ENE
USA 267 3.8 23:08:43 10° ENE 23:15:08 59° NNW 23:21:32 10° W
Cosmos 2233 Rocket 4.1 23:14:31 42° SSE 23:16:34 64° E 23:22:50 10° NNE
Cosmos 1908 Rocket 4.4 23:18:33 35° E 23:18:38 35° E 23:22:37 10° NNE
Cosmos 841 Rocket 4.2 23:16:04 10° NW 23:20:55 40° WSW 23:22:05 35° SW
Cosmos 540 Rocket 4.2 23:17:16 10° NW 23:22:05 40° WSW 23:23:10 36° SW
NOSS 3-2 (A) 4.2 23:17:25 10° WSW 23:23:15 55° NW 23:30:02 10° NE
SL-16 R/B 3.3 23:19:49 10° NW 23:24:42 30° WSW 23:26:08 27° SW
Lacrosse 5 2.8 23:20:27 10° WNW 23:24:41 31° SW 23:24:41 31° SW
Cosmos 2322 3.6 23:22:07 10° NNW 23:27:50 84° ENE 23:29:31 48° SE
Cosmos 1378 Rocket 3.4 23:23:52 10° N 23:28:22 84° E 23:28:49 71° SSE
NOSS 3-2 (C) 3.7 23:23:11 10° WSW 23:29:00 68° NW 23:35:50 10° NE
Cosmos 1833 4.2 23:28:44 51° SSE 23:29:53 63° ESE 23:35:29 10° NE
COSMOS 2487 3.5 23:32:14 38° NE 23:32:14 38° NE 23:34:38 10° NNE
GENESIS II 4.4 23:30:22 10° NW 23:34:23 66° NE 23:34:38 63° ENE
Cosmos 2084 Rocket 3.5 23:35:29 58° WSW 23:36:15 76° NW 23:40:36 10° NE
Cosmos 2219 Rocket 2.3 23:30:40 10° NNW 23:36:22 71° ENE 23:38:19 42° SE
Tsikada Rocket 4.3 23:31:17 10° NNW 23:37:32 60° W 23:39:45 39° SSW
EO 1 Del DPAF 3.5 23:36:05 10° N 23:39:47 57° WNW 23:39:56 56° W
Terra 4.3 23:39:54 10° W 23:41:07 11° W 23:42:21 10° WNW
Cosmos 1975 Rocket 3.8 23:37:24 10° N 23:41:43 43° ENE 23:42:25 40° E
Cosmos 2333 4.2 23:36:25 10° NNW 23:42:15 80° WSW 23:43:44 52° SSE
Cosmos 1242 Rocket 3.6 23:43:10 10° NNW 23:46:08 37° WNW 23:46:08 37° WNW
Cosmos 2322 Rocket 3.5 23:42:19 10° NW 23:46:54 26° WSW 23:48:01 24° WSW
YAOGAN 11 4.4 23:48:26 53° ESE 23:49:11 63° ENE 23:53:45 10° N
Helios 1A 2.9 23:49:48 70° ESE 23:50:05 74° ENE 23:54:19 10° N
ERBS 3.8 23:47:02 10° NW 23:50:09 36° NNE 23:51:02 30° NE
SL-16 R/B 4.4 23:47:23 10° NNW 23:51:48 22° NE 23:56:11 10° E
SL-16 R/B 4.5 23:47:19 10° E 23:52:03 23° NE 23:56:46 10° N
Cosmos 1486 Rocket 3.9 23:52:11 59° SSE 23:52:59 70° ESE 23:58:11 10° NNE
Meteor 1-11 Rocket 4.5 23:51:38 29° SW 23:54:04 47° WNW 23:59:38 10° N
Cosmos 1544 3.7 23:54:38 49° ENE 23:54:38 49° ENE 23:57:42 10° NNE
